COSMOS 2251 DEB, 35885

Orbit data source: Space-Track

COSMOS 2251 DEB, 35885 is space debris in LEO originally from a launch on Wed, 16 Jun 1993 UTC launched from the Plesetsk Missile And Space Complex (PKMTR). The debris from Iridium 33, an American commercial communications satellite, has been tracked extensively since its accidental collision with the defunct Russian satellite Cosmos 2251 in 2009. This event, occurring at high speed in low Earth orbit (LEO), generated thousands of pieces of space debris, significantly increasing the risk of further collisions. The Iridium 33 debris cloud has impacted space traffic management and orbital debris mitigation strategies, making it a subject of ongoing study in space situational awareness.

Loading next visibility...
Identifier
35885, 1993-036ATY
Orbit
LEO
Country
Flag of CISCIS
Related business
Manufacturer
Unknown
Mission
Spacecraft
Bus & Motor
Unknown
Mass
Unknown
Launch date (UTC)
1993-06-16 (33 years ago)
Launch vehicle
Unknown
Launch site
Plesetsk Missile And Space Complex (PKMTR)
Object type
Payload
Rocket body
Debris
Shape & HBR
Unknown shape, 0.1 m
Radar Cross Section
Small (<0.1 m²)

Expand to show TLE details & history
Last TLE update: 1 day ago

TLE from 1 day ago
0 COSMOS 2251 DEB
1 35885U 93036ATY 25351.49898255  .00000784  00000-0  26947-3 0  9996
2 35885  74.0285 286.0322 0023477   5.3939 354.7462 14.37529701650845
Epoch: 2025-12-17T11:58Z
TLE epoch observation values (Epoch: 2025-12-17T11:58:32.092Z)
Latitude
-0.00008°
Longitude
20.03049°
Altitude
752.579 km
Speed
7.487 km/s
True Right ascension
19h 04m 07s
True Declination
0° 00' 00"
Sunlit
Object was in daylight at epoch
Visualization orbit readout
Latitude
Unknown
Longitude
Unknown
Altitude
Unknown
Speed
Unknown
Apparent Right ascension
Unknown
Apparent Declination
Unknown
Sunlit
N/A
Visualization observer readout
Local Sidereal Time
19:05:49
Azimuth
Unknown
Elevation
Unknown
Doppler factor
Unknown
Orbital elements
Apogee altitude
781.063 km
Perigee altitude
747.527 km
Semi-major axis
7,142.432 km
Eccentricity
0.00235
Inclination
74.0285°
RAAN
286.0322°
Arg. of periapsis
5.3939°
True anomaly
354.72149°
Mean anomaly
354.7462°
Eccentric anomaly
354.73385°
Mean motion
3.59562 °/min
Orbital period
100.12 mins
BSTAR
0.00026947
Loading maneuver chart data...
Computing Atmospheric mass density...

Documentation

Showing up to 5 results
|